Location: Haies-de-Macon
(50.0391°N, 4.1987°E)
Time: 07:39:34
(UTC+00:00)

Daily predictions for brighter satellites

Satellite Brightness Start Highest point End
(mag) Time Altitude Azimuth Time Altitude Azimuth Time Altitude Azimuth
ERS-1 Rocket 3.8 20:20:32 10° SE 20:25:09 38° ENE 20:29:48 10° N
STARLINK-1198 4.2 20:21:06 10° W 20:25:13 63° N 20:29:21 10° ENE
STARLINK-1221 3.9 20:22:45 10° WNW 20:25:45 45° N 20:28:46 10° ENE
STARLINK-1101 3.6 20:21:55 10° WNW 20:26:04 89° SSW 20:30:14 10° ESE
STARLINK-1222 3.9 20:23:35 10° WNW 20:26:37 45° N 20:29:37 10° ENE
STARLINK-1214 3.9 20:24:29 10° WNW 20:27:31 46° N 20:30:32 10° ENE
USA 238 DEB 4.3 20:23:10 10° NW 20:30:13 59° NE 20:37:31 10° ESE
STARLINK-1199 4.2 20:26:08 10° W 20:30:14 61° N 20:34:21 10° ENE
USA 238 4.3 20:23:16 10° NW 20:30:19 59° NE 20:37:38 10° ESE
STARLINK-1102 3.6 20:26:54 10° WNW 20:31:04 85° SSW 20:35:13 10° ESE
USA 245 2.5 20:28:30 10° SSE 20:31:23 56° ENE 20:33:50 10° N
STARLINK-1228 4.0 20:28:33 10° WNW 20:31:59 51° N 20:35:25 10° E
STARLINK-1269 3.6 20:28:17 10° WSW 20:32:25 75° SSE 20:36:35 10° ENE
Okean 1 Rocket 3.5 20:28:55 10° N 20:33:16 47° ENE 20:37:33 10° SSE
Cosmos 1805 4.5 20:30:01 10° N 20:33:30 28° ENE 20:36:55 10° SE
Cosmos 1741 Rocket 4.1 20:28:35 10° NNW 20:33:50 81° WSW 20:39:03 10° SSE
Cosmos 2278 Rocket 2.7 20:28:17 10° SW 20:33:55 66° WNW 20:39:37 10° NNE
Okean 2 Rocket 3.6 20:29:38 10° NNW 20:34:01 59° W 20:38:19 10° S
Resurs 01 Rocket 2.4 20:30:38 10° S 20:34:59 52° W 20:39:22 10° NNW
STARLINK-1210 4.2 20:31:06 10° W 20:35:13 60° N 20:39:20 10° ENE
STARLINK-1235 3.9 20:32:13 10° WNW 20:35:22 48° N 20:38:32 10° E
Nadezhda 4 Rocket 4.4 20:30:12 10° SSE 20:35:57 44° E 20:41:42 10° NNE
STARLINK-1111 3.6 20:31:52 10° WNW 20:36:01 81° SSW 20:40:10 10° ESE
STARLINK-1200 3.6 20:33:14 10° WSW 20:37:23 79° SSE 20:41:32 10° ENE
MetOp-B 4.3 20:33:29 10° SSE 20:38:50 80° WSW 20:44:14 10° NNW
STARLINK-1219 4.3 20:36:05 10° W 20:40:13 59° N 20:44:19 10° ENE
STARLINK-1073 3.6 20:36:52 10° WNW 20:41:00 77° SSW 20:45:09 10° ESE
SL-8 R/B 3.9 20:36:23 10° W 20:41:07 59° SSW 20:45:51 10° ESE
Cosmos 2279 Rocket 4.2 20:35:45 10° NNW 20:41:59 75° W 20:48:10 10° S
STARLINK-1192 3.6 20:38:13 10° WSW 20:42:23 83° SSE 20:46:32 10° ENE
Cosmos 1850 Rocket 4.4 20:38:04 10° NNW 20:43:23 66° WSW 20:48:40 10° S
ATLAS CENTAUR R/B 3.4 20:43:30 10° NW 20:44:40 14° NNW 20:45:46 10° NNE
STARLINK-1211 4.3 20:41:06 10° W 20:45:13 58° N 20:49:20 10° ENE
Cosmos 371 Rocket 3.6 20:41:02 10° SSW 20:45:53 76° WNW 20:50:48 10° NNE
STARLINK-1121 3.6 20:41:50 10° WNW 20:45:58 73° SSW 20:50:07 10° ESE
SL-4 R/B 4.0 20:44:39 10° SSE 20:47:14 15° SE 20:49:51 10° E
STARLINK-1244 3.6 20:43:11 10° WSW 20:47:21 87° SSE 20:51:31 10° ENE
Cosmos 1110 Rocket 4.3 20:43:09 10° S 20:48:05 47° ESE 20:53:02 10° NE
Cosmos 2151 Rocket 4.1 20:44:17 10° NNW 20:48:46 60° W 20:53:12 10° S
Terra 2.7 20:44:26 10° SE 20:48:48 38° ENE 20:53:11 10° N
Abrixas rocket 2.9 20:46:53 10° W 20:49:35 32° SSW 20:51:50 13° SE
Spot 2 Rocket 3.6 20:44:56 10° S 20:49:58 78° WSW 20:55:03 10° NNW
STARLINK-1245 4.3 20:46:06 10° W 20:50:12 57° N 20:54:18 10° ENE
SPOT 1/Viking Rocket 3.6 20:45:41 10° SSE 20:50:50 81° ENE 20:56:02 10° NNW
STARLINK-1106 3.7 20:46:50 10° WNW 20:50:58 69° SSW 20:54:56 11° SE
ERBS 3.8 20:48:32 10° W 20:51:41 40° NNW 20:54:51 10° NE
CARTOSAT-1 3.9 20:47:49 10° SSE 20:51:59 54° ENE 20:56:12 10° N
NOSS 8 (H) 4.4 20:49:04 10° SSW 20:52:06 46° SE 20:55:04 10° NE
STARLINK-1138 3.6 20:48:10 10° WSW 20:52:19 89° WNW 20:56:30 10° ENE
STARLINK-1234 3.7 20:50:00 10° WNW 20:53:14 53° N 20:56:28 10° E
STARLINK-1233 4.3 20:51:05 10° W 20:55:10 57° N 20:59:16 10° ENE
STARLINK-1112 3.7 20:51:48 10° WNW 20:55:55 66° SSW 20:59:41 12° SE
STARLINK-1143 3.7 20:53:08 10° WSW 20:57:17 86° NNW 21:01:27 10° ENE
Aureole 2 4.3 20:54:50 10° NNW 20:58:01 69° WSW 21:00:36 13° SSE
STARLINK-1209 3.6 20:55:59 10° WNW 20:59:14 56° N 21:02:29 10° E
STARLINK-1204 4.3 20:56:06 10° W 21:00:10 56° N 21:04:16 10° ENE
STARLINK-1128 3.8 20:56:47 10° WNW 21:00:53 62° SSW 21:04:28 13° SE
STARLINK-1241 3.7 20:58:09 10° WSW 21:02:18 83° NNW 21:06:29 10° ENE
deb Kosmos-1763 4.5 21:00:08 10° NNW 21:03:41 56° WSW 21:06:57 12° S
Cosmos 1331 Rocket 4.1 20:59:48 10° S 21:04:50 58° ESE 21:09:56 10° NNE
STARLINK-1238 4.3 21:01:06 10° W 21:05:12 56° N 21:09:17 10° ENE
Aureole 2 Rocket 2.0 21:02:30 10° SSW 21:05:36 86° NW 21:08:34 10° NNE
STARLINK-1113 3.8 21:01:46 10° WNW 21:05:51 58° SSW 21:09:16 14° SE
Cosmos 1733 3.8 21:03:02 10° N 21:06:41 42° ENE 21:09:32 15° SE
STARLINK-1239 3.8 21:03:07 10° WSW 21:07:16 80° NNW 21:11:27 10° ENE
STARLINK-1201 4.3 21:06:06 10° W 21:10:12 55° N 21:14:17 10° ENE
Cosmos 1437 Rocket 3.4 21:06:51 10° SSW 21:10:35 56° WNW 21:14:22 10° N
STARLINK-1119 3.9 21:06:47 10° WNW 21:10:50 54° SSW 21:14:04 15° SE
STARLINK-1240 3.8 21:08:06 10° WSW 21:12:15 77° NNW 21:16:25 10° ENE
Cosmos 1378 3.2 21:09:41 12° S 21:13:05 58° E 21:16:45 10° NNE
STARLINK-1206 4.3 21:11:06 10° W 21:15:12 55° N 21:19:18 10° ENE
STARLINK-1114 4.0 21:11:46 10° WNW 21:15:47 51° SSW 21:18:49 16° SE
USA 215 4.0 21:10:18 10° E 21:16:38 54° NNE 21:22:57 10° WNW
STARLINK-1203 3.9 21:12:55 10° WSW 21:17:08 74° NNW 21:21:21 10° ENE
Cosmos 1242 Rocket 4.2 21:15:26 15° SE 21:17:08 20° E 21:19:51 10° NE
STARLINK-1216 3.9 21:13:04 10° WSW 21:17:13 74° NNW 21:21:23 10° ENE
Cosmos 304 Rocket 3.9 21:12:29 10° SSW 21:17:17 79° WNW 21:22:07 10° NNE
Lacrosse 5 3.9 21:14:44 10° W 21:17:59 17° WSW 21:21:13 10° SSW
STARLINK-1205 4.3 21:16:06 10° WNW 21:20:10 55° N 21:24:16 10° E
STARLINK-1130 (DARKSAT) 4.0 21:16:45 10° WNW 21:20:45 48° SSW 21:23:37 17° SE
Cosmos 1092 Rocket 4.1 21:15:30 11° S 21:21:24 61° E 21:27:27 10° NNE
NOSS 2-2 (D) 3.1 21:18:23 10° SSW 21:21:55 61° SE 21:25:56 10° NE
STARLINK-1237 3.9 21:18:04 10° W 21:22:13 71° NNW 21:26:22 10° ENE
CENTAUR R/B 3.4 21:14:59 10° NW 21:22:48 69° NE 21:31:08 11° SE
STARLINK-1218 4.3 21:21:06 10° WNW 21:25:12 56° N 21:29:17 10° E
STARLINK-1084 4.1 21:21:45 10° WNW 21:25:43 45° SW 21:28:24 19° SSE
Cosmos 1674 Rocket 4.4 21:21:30 10° SSW 21:25:46 50° WNW 21:30:06 10° N
ATLAS 3B R/B 3.6 21:19:33 10° NW 21:25:57 43° NNE 21:32:31 10° ESE
SL-27 R/B 2.8 21:23:37 10° NNW 21:27:11 56° ENE 21:29:28 20° SE
STARLINK-1202 4.0 21:23:04 10° W 21:27:13 69° NNW 21:31:22 10° ENE
NOSS 3-2 (C) 4.1 21:20:44 10° NW 21:28:06 78° NE 21:35:37 14° SE
Cosmos 1378 Rocket 4.1 21:24:16 10° SSW 21:28:37 60° WNW 21:32:58 10° N
Cosmos 1766 3.3 21:25:44 10° NNW 21:29:45 84° W 21:32:47 17° S
STARLINK-1254 4.3 21:26:06 10° WNW 21:30:12 56° N 21:34:17 10° E
Cosmos 1726 4.4 21:28:27 10° NNE 21:30:35 15° ENE 21:32:43 10° E
STARLINK-1098 4.2 21:26:45 10° WNW 21:30:40 42° SW 21:33:11 19° SSE
Cosmos 1867 4.3 21:27:48 10° NW 21:33:07 48° NE 21:38:06 11° ESE
STARLINK-1231 4.3 21:31:05 10° WNW 21:35:10 56° N 21:39:16 10° E
STARLINK-1123 4.3 21:31:44 10° WNW 21:35:36 39° SW 21:37:57 20° SSE
STARLINK-1246 4.1 21:33:05 10° W 21:37:12 65° NNW 21:41:21 10° ENE
Cosmos 1943 Rocket 2.2 21:32:39 10° SSW 21:38:06 63° ESE 21:43:40 10° NE
Cosmos 2297 4.1 21:32:38 10° SW 21:38:18 69° WNW 21:44:03 10° NNE
NOSS 2-2 (E) 3.4 21:35:35 10° SW 21:39:12 78° NW 21:43:29 10° NE
NOSS 3-4 (A) 4.4 21:36:32 17° SSE 21:39:40 26° ESE 21:44:44 10° ENE
NOSS 3-4 (C) 4.4 21:36:40 17° SSE 21:39:47 26° ESE 21:44:49 10° ENE
STARLINK-1232 4.3 21:36:06 10° WNW 21:40:10 57° N 21:44:17 10° E
STARLINK-1097 4.4 21:36:46 10° WNW 21:40:35 36° SW 21:42:45 21° SSE
Cosmos 2082 Rocket 4.2 21:38:02 10° NW 21:42:01 20° W 21:45:59 10° SW
STARLINK-1224 4.1 21:38:04 10° W 21:42:12 64° N 21:46:19 10° ENE
SeaSat 1 3.8 21:39:06 10° ENE 21:42:51 21° ESE 21:44:34 18° SE
STARLINK-1208 4.2 21:41:04 10° WNW 21:45:09 57° N 21:49:15 10° E
Cosmos 1461 4.2 21:42:25 10° WSW 21:46:29 46° NW 21:50:46 10° NNE
STARLINK-1225 4.1 21:43:04 10° W 21:47:12 62° N 21:51:19 10° ENE
Cosmos 1975 Rocket 3.0 21:44:36 16° S 21:48:05 80° E 21:52:31 10° NNE
STARLINK-1212 3.0 21:45:21 10° WNW 21:48:28 72° NNE 21:50:46 17° E
STARLINK-1105 3.0 21:45:50 10° WNW 21:48:56 72° NNE 21:51:13 17° ESE
STARLINK-1247 3.0 21:46:42 10° WNW 21:49:50 73° NNE 21:52:06 17° ESE
STARLINK-1271 4.2 21:46:04 10° WNW 21:50:11 58° N 21:54:17 10° E
STARLINK-1227 3.0 21:47:12 10° WNW 21:50:19 73° NNE 21:52:32 17° ESE
BREEZE-M DEB (TANK) 3.7 21:35:34 10° WSW 21:50:56 68° SSE 21:54:54 10° E
STARLINK-1226 3.0 21:48:04 10° WNW 21:51:11 74° NNE 21:53:23 18° ESE
Cosmos 292 Rocket 4.1 21:48:20 19° S 21:51:32 47° ESE 21:56:12 10° NNE
BREEZE-M DEB (TANK) 2.8 21:47:35 10° W 21:51:46 84° S 21:55:27 10° E
STARLINK-1215 3.0 21:48:57 10° WNW 21:52:05 75° NNE 21:54:16 18° ESE
STARLINK-1230 4.2 21:48:04 10° W 21:52:11 61° N 21:56:18 10° ENE
STARLINK-1217 2.9 21:50:46 10° WNW 21:53:54 76° NNE 21:56:01 19° ESE
Cosmos 2369 Rocket 2.2 21:49:04 12° S 21:54:18 61° ESE 21:59:53 10° NE
STARLINK-1229 2.9 21:51:40 10° WNW 21:54:48 77° NNE 21:56:54 19° ESE
STARLINK-1154 4.2 21:51:04 10° WNW 21:55:10 59° N 21:59:17 10° E
STARLINK-1270 2.9 21:52:34 10° WNW 21:55:42 78° NNE 21:57:46 19° ESE
STARLINK-1243 4.2 21:53:05 10° W 21:57:11 60° N 22:01:18 10° ENE
STARLINK-1189 2.9 21:54:22 10° WNW 21:57:30 79° NNE 21:59:29 20° ESE
Aureole 3 Rocket 4.4 21:51:34 10° N 21:57:39 75° E 22:03:54 19° SSE
SPOT 5 3.9 21:53:31 13° SSW 21:57:56 46° W 22:03:06 10° NNW
STARLINK-1188 2.9 21:55:16 10° WNW 21:58:24 80° NNE 22:00:22 21° ESE
STARLINK-1187 2.8 21:56:23 10° WNW 21:59:29 86° NNE 22:01:13 24° ESE
ATLAS CENTAUR R/B 2.8 21:59:35 20° SE 22:00:05 21° ESE 22:03:14 10° ENE
STARLINK-1197 4.1 21:56:02 10° WNW 22:00:09 60° N 22:04:16 10° E
Cosmos 1340 Rocket 4.2 21:56:45 10° N 22:00:19 29° ENE 22:02:31 18° ESE
STARLINK-1191 2.8 21:57:43 10° WNW 22:00:50 82° NNE 22:02:39 22° ESE
STARLINK-1221 2.8 21:58:40 10° WNW 22:01:47 83° NNE 22:03:34 23° ESE
STARLINK-1236 4.2 21:58:04 10° W 22:02:10 59° N 22:06:17 10° ENE
STARLINK-1222 2.8 21:59:31 10° WNW 22:02:38 84° NNE 22:04:23 23° ESE
STARLINK-1214 2.8 22:00:25 10° WNW 22:03:32 85° NNE 22:05:15 24° ESE
NOSS 2-2 (C) 3.8 22:00:19 10° WSW 22:03:52 59° NW 22:08:03 10° NE
ERS-1 Rocket 4.2 21:59:40 11° SSW 22:03:59 34° W 22:08:35 10° NNW
Thor Agena Rocket 4.0 21:59:06 10° NNE 22:04:12 45° E 22:07:12 23° SSE
EXPRESS MD2 3.9 22:01:10 10° WSW 22:04:58 79° SSE 22:12:54 10° E
Cosmos 1025 Rocket 3.6 22:02:58 25° SSE 22:05:00 42° E 22:09:05 10° NNE
STARLINK-1198 4.1 22:01:01 10° WNW 22:05:08 62° N 22:09:15 10° E
Okean 2 3.8 22:02:00 14° SSW 22:05:28 61° WNW 22:09:37 10° N
Cosmos 2026 Rocket 4.0 22:00:23 14° S 22:05:51 88° WNW 22:12:16 10° N
BREEZE M DEB (TANK) 1.7 22:03:53 10° WSW 22:07:25 67° S 22:08:33 24° E
Cosmos 1553 Rocket 4.0 22:01:11 10° N 22:07:31 77° E 22:11:43 22° SSE
ATLAS 2AS CENTAUR R/B 3.3 22:00:30 12° S 22:07:38 49° ESE 22:15:11 10° NE
Cosmos 1656 Rocket 4.2 22:04:50 22° SSE 22:08:02 41° ESE 22:13:14 10° NE
Cosmos 1953 3.2 22:05:01 10° N 22:08:47 38° ENE 22:10:41 23° SE
BREEZE-M DEB (TANK) 4.3 21:53:52 10° WNW 22:08:49 66° SSW 22:11:56 20° SE
NOSS 3-2 (A) 4.4 22:02:05 10° NW 22:09:21 55° WSW 22:15:11 20° SSE
STARLINK-1228 3.0 22:05:52 10° WNW 22:09:22 76° SSW 22:11:08 27° ESE
Cosmos 1470 2.6 22:06:03 10° N 22:09:57 86° E 22:11:51 29° SSE
STARLINK-1199 4.1 22:06:02 10° WNW 22:10:09 63° N 22:14:17 10° E
STARLINK-1235 2.8 22:08:35 10° WNW 22:11:50 76° SSW 22:13:12 32° SE
STARLINK-1269 4.3 22:08:04 10° W 22:12:10 57° N 22:16:16 10° ENE
APEX 4.3 22:06:47 13° SSW 22:12:26 63° ESE 22:17:40 10° NE
Cosmos 968 Rocket 3.4 22:09:19 10° NNW 22:14:29 80° WSW 22:17:31 25° SSE
STARLINK-1210 4.0 22:11:00 10° WNW 22:15:08 65° NNE 22:19:16 10° E
Cosmos 1455 Rocket 3.5 22:12:33 10° NNW 22:16:48 53° W 22:19:25 21° SSW
STARLINK-1200 4.3 22:13:03 10° W 22:17:09 56° N 22:21:15 10° ENE
Cosmos 1655 Rocket 4.2 22:15:01 22° SSE 22:18:56 56° E 22:25:03 10° NNE
STARLINK-1219 4.0 22:15:59 10° WNW 22:20:07 66° NNE 22:24:15 10° E
SL-4 R/B 2.6 22:20:18 18° ENE 22:20:21 18° ENE 22:22:00 10° NNE
USA 238 DEB 4.4 22:14:20 10° NW 22:21:08 46° WSW 22:25:51 21° S
USA 238 4.4 22:14:26 10° NW 22:21:15 46° WSW 22:25:58 21° S
ATLAS 5 CENTAUR R/B 2.3 22:21:46 31° SSE 22:22:05 32° SE 22:24:22 10° ENE
STARLINK-1192 4.3 22:18:04 10° W 22:22:10 56° N 22:26:15 10° ENE
Cosmos 1758 3.3 22:19:22 10° NNW 22:23:26 79° W 22:25:25 29° S
STARLINK-1211 3.9 22:20:59 10° WNW 22:25:07 68° NNE 22:29:16 10° E
SL-4 R/B 2.5 22:21:31 10° SW 22:26:10 51° SSE 22:30:51 10° ENE
Cosmos 2228 4.5 22:22:46 10° N 22:26:25 27° ENE 22:28:36 18° ESE
Terra 3.1 22:23:14 15° SSW 22:26:36 32° W 22:30:52 10° NNW
Cosmos 1842 4.2 22:24:07 16° SW 22:27:02 44° WNW 22:30:47 10° N
STARLINK-1244 4.3 22:23:03 10° W 22:27:09 56° N 22:31:14 10° ENE
STARLINK-1234 3.1 22:26:22 10° WNW 22:29:35 56° SSW 22:30:16 44° SSE
STARLINK-1245 3.8 22:25:57 10° WNW 22:30:06 71° NNE 22:34:15 10° E
STARLINK-1138 4.3 22:28:03 10° W 22:32:09 55° N 22:36:14 10° ENE
Cosmos 1503 Rocket 4.1 22:29:19 10° NNW 22:34:38 76° WSW 22:37:35 27° SSE
STARLINK-1233 3.8 22:30:55 10° WNW 22:35:04 73° NNE 22:39:12 10° ESE
STARLINK-1209 3.2 22:32:34 10° WNW 22:35:45 49° SSW 22:36:13 44° S
STARLINK-1143 4.3 22:33:02 10° W 22:37:07 55° N 22:41:13 10° E
Cosmos 2266 Rocket 4.2 22:33:43 25° SSE 22:37:12 55° E 22:43:05 10° NNE
STARLINK-1204 3.7 22:35:54 10° WNW 22:40:03 76° NNE 22:43:59 11° ESE
Meteor 2-8 Rocket 4.5 22:34:11 10° NNW 22:40:22 84° W 22:44:07 25° S
STARLINK-1241 4.3 22:38:04 10° WNW 22:42:10 55° N 22:46:15 10° E
SJ 16-02 4.0 22:40:04 10° NNE 22:42:10 13° NE 22:44:14 10° ENE
Cosmos 2263 4.2 22:39:18 14° SSW 22:44:11 82° WNW 22:49:51 10° NNE
STARLINK-1238 3.7 22:40:54 10° WNW 22:45:04 79° NNE 22:48:47 13° ESE
STARLINK-1239 4.3 22:43:03 10° WNW 22:47:09 56° N 22:51:14 10° E
Cosmos 1536 Rocket 3.5 22:45:44 29° SSW 22:47:55 83° W 22:52:19 10° N
Cosmos 1674 3.6 22:48:20 29° SE 22:49:18 35° E 22:52:47 10° NNE
STARLINK-1201 3.6 22:45:53 10° WNW 22:50:02 82° NNE 22:53:33 14° ESE
Cosmos 1271 Rocket 3.3 22:49:29 24° SW 22:51:36 53° WNW 22:55:30 10° N
Cosmos 1242 Rocket 3.9 22:49:25 17° SW 22:51:47 35° WNW 22:55:13 10° N
STARLINK-1240 4.3 22:48:02 10° WNW 22:52:08 56° N 22:56:13 10° E
Cosmos 1354 Rocket 4.3 22:48:42 10° NNW 22:53:56 60° WSW 22:56:35 28° S
STARLINK-60 2.7 22:52:21 16° WSW 22:54:47 81° SSE 22:57:59 10° ENE
STARLINK-1206 3.6 22:50:53 10° WNW 22:55:02 85° NNE 22:58:21 16° ESE
Cosmos 883 Rocket 4.5 22:49:15 10° N 22:55:25 80° E 22:58:57 27° SSE
Spot 4 4.1 22:53:29 28° S 22:55:54 60° WSW 23:00:44 10° NNW
COSMOS 2455 2.9 22:52:50 25° S 22:56:21 60° ESE 23:02:17 10° NE
Cosmos 2219 4.5 22:51:45 10° NNW 22:56:58 35° NE 23:02:07 10° ESE
STARLINK-1216 4.3 22:53:01 10° WNW 22:57:07 57° N 23:01:12 10° E
STARLINK-1203 4.3 22:53:05 10° WNW 22:57:15 57° N 23:01:24 10° E
USA 215 3.2 22:52:56 10° ESE 22:59:26 88° SW 23:06:02 10° WNW
STARLINK-1205 3.5 22:55:50 10° WNW 23:00:00 88° NNE 23:03:07 17° ESE
Cosmos 2297 Rocket 3.7 22:56:06 10° NNW 23:01:11 33° NE 23:06:14 10° ESE
Cosmos 1707 3.4 22:59:44 25° SW 23:01:40 50° WNW 23:05:29 10° N
STARLINK-1237 4.3 22:58:01 10° WNW 23:02:07 57° N 23:06:13 10° E
Helios 1A 3.5 23:01:35 28° SE 23:03:31 51° ENE 23:07:36 10° N
Lacrosse 4 Rocket 4.2 23:01:46 10° N 23:04:33 16° NNE 23:07:19 10° ENE
STARLINK-1218 3.5 23:00:50 10° WNW 23:05:00 88° SSW 23:07:55 19° ESE
Cosmos 1726 2.5 23:02:30 10° NNW 23:06:09 54° W 23:07:20 36° SSW
STARLINK-1202 4.2 23:03:00 10° WNW 23:07:07 58° N 23:11:13 10° E
Cosmos 1174 3.3 23:06:36 49° S 23:07:20 69° SE 23:11:10 10° NE
Timation 2 Rocket 4.0 23:02:26 10° NNW 23:08:50 76° ENE 23:12:55 22° SE
ALOS 2 2.5 23:07:47 35° S 23:09:37 82° WSW 23:14:03 10° NNW
Cosmos 2058 Rocket 4.0 23:05:36 10° N 23:09:47 39° ENE 23:11:58 23° SE
COSMOS 2487 2.8 23:06:29 10° NNW 23:09:52 48° WSW 23:10:32 41° SW
STARLINK-1254 3.5 23:05:49 10° WNW 23:09:59 84° SSW 23:12:41 21° ESE
CENTAUR R/B 3.7 23:05:57 10° NW 23:13:28 43° WSW 23:18:17 24° S
STARLINK-1231 3.5 23:10:47 10° WNW 23:14:57 80° SSW 23:17:27 23° ESE
Meteor 1-16 Rocket 4.3 23:09:38 10° NNW 23:15:06 64° W 23:17:49 29° SSW
Cosmos 1867 4.2 23:11:36 10° NW 23:16:40 40° WSW 23:18:45 28° SSW
Meteor 2-5 Rocket 4.1 23:14:12 28° SSE 23:16:52 51° E 23:22:19 10° NNE
ATLAS 3B R/B 2.7 23:10:18 10° NW 23:17:01 66° SW 23:21:09 26° SSE
STARLINK-1246 4.2 23:13:00 10° WNW 23:17:07 60° N 23:21:14 10° E
EO 1 Del DPAF 4.4 23:13:51 10° N 23:17:22 36° WNW 23:19:29 20° SW
FALCON 9 DEB 3.4 23:20:07 46° SE 23:20:07 46° SE 23:23:13 10° ENE
Cosmos 1606 Rocket 3.5 23:15:34 10° N 23:19:55 89° ENE 23:21:36 37° S
STARLINK-1232 3.5 23:15:47 10° WNW 23:19:56 76° SSW 23:22:14 25° ESE
SL-14 R/B 4.5 23:19:11 25° ESE 23:20:13 29° E 23:23:35 10° NNE
SeaSat 1 2.7 23:15:52 10° NNE 23:20:47 70° NW 23:24:20 19° SW
STARLINK-1224 4.1 23:17:59 10° WNW 23:22:06 61° N 23:26:13 10° E
Cosmos 1943 Rocket 4.0 23:17:26 10° WSW 23:22:17 29° NW 23:27:11 10° NNE
Cosmos 2098 Rocket 4.4 23:20:08 26° S 23:24:35 84° E 23:32:06 10° N
STARLINK-29 2.7 23:24:02 52° SW 23:24:41 75° SSE 23:27:53 10° ENE
STARLINK-1208 3.5 23:20:45 10° WNW 23:24:54 72° SSW 23:27:00 28° SE
STARLINK-1225 4.1 23:22:59 10° WNW 23:27:07 62° N 23:31:14 10° E
ATLAS CENTAUR R/B 2.0 23:25:22 10° NW 23:27:21 40° NNE 23:30:40 10° ESE
STARLINK-1373 4.4 23:30:05 29° ESE 23:30:05 29° ESE 23:32:54 10° E
STARLINK-1271 3.5 23:25:46 10° WNW 23:29:53 68° SSW 23:31:49 30° SE
NOSS 3-4 (A) 3.6 23:23:55 10° SW 23:29:54 75° NW 23:36:24 10° NE
NOSS 3-4 (C) 3.6 23:24:01 10° SW 23:30:00 75° NW 23:36:31 10° NE
STARLINK-1365 4.3 23:31:12 31° SE 23:31:12 31° SE 23:34:11 10° ENE
RESURS DK-1 2.5 23:29:48 40° S 23:31:00 58° ESE 23:35:04 10° NE
STARLINK-1230 4.0 23:27:58 10° WNW 23:32:05 64° NNE 23:36:13 10° E
STARLINK-1390 4.3 23:33:34 31° SE 23:33:34 31° SE 23:36:33 10° ENE
Cosmos 2315 Rocket 4.1 23:27:24 10° NNW 23:33:35 69° W 23:36:59 28° S
STARLINK-1154 3.5 23:30:44 10° WNW 23:34:51 64° SSW 23:36:35 32° SE
Cosmos 2084 3.8 23:33:37 38° S 23:34:52 50° SE 23:39:13 10° NE
BREEZE-M R/B 4.1 23:31:45 20° SSW 23:35:46 37° SSE 23:39:33 10° E
Cosmos 1340 Rocket 4.2 23:33:12 10° NNW 23:36:45 29° W 23:38:06 24° SW
Cosmos 1626 2.7 23:36:00 36° SE 23:36:56 44° E 23:40:30 10° NNE
STARLINK-1243 4.0 23:32:58 10° WNW 23:37:06 66° NNE 23:41:14 10° E
Cosmos 2227 Rocket 3.0 23:32:49 10° NNW 23:38:20 48° NE 23:43:30 11° SE
ATLAS CENTAUR R/B 1.8 23:35:42 19° WSW 23:38:42 62° NW 23:42:45 10° NE
Cosmos 2369 Rocket 3.9 23:33:45 10° WSW 23:38:43 30° NW 23:43:42 10° NNE
Okean 1-7 Rocket 3.9 23:37:39 34° SSE 23:39:22 57° E 23:43:51 10° NNE
STARLINK-1197 3.6 23:35:42 10° WNW 23:39:48 61° SSW 23:41:20 35° SE
Cosmos 1908 3.7 23:37:45 10° NNW 23:41:26 47° W 23:42:29 36° SW
STARLINK-1236 3.9 23:37:56 10° WNW 23:42:04 68° NNE 23:46:13 10° E
Nadezhda 2 Rocket 4.4 23:39:44 29° S 23:43:03 78° E 23:49:13 10° NNE
Aureole 3 4.2 23:41:24 10° NNW 23:44:06 25° W 23:44:31 24° WSW
STARLINK-1198 3.6 23:40:41 10° WNW 23:44:46 57° SSW 23:46:07 37° SSE
Cosmos 1953 4.1 23:41:56 10° NW 23:44:56 21° W 23:46:22 17° WSW
SL-4 R/B 3.6 23:50:08 10° WNW 23:50:08 10° WNW 23:50:14 10° WNW
STARLINK-1199 3.7 23:45:42 10° WNW 23:49:45 53° SSW 23:50:55 39° SSE
Landsat 4 3.6 23:46:11 10° NNE 23:49:55 84° ESE 23:51:00 45° S
STARLINK-1269 3.8 23:47:54 10° WNW 23:52:04 72° NNE 23:56:13 10° E
KORONAS-FOTON 4.4 23:52:25 31° SW 23:53:49 47° WNW 23:57:35 10° N
STARLINK-1210 3.8 23:50:40 10° WNW 23:54:42 50° SSW 23:55:41 40° SSE
